When you browse on this site, cookies collect data to enhance your experience and personalize the content and advertising you see.
Visit our Privacy Policy to learn more. By continuing to use the site, you agree to this use of cookies and data.
  • In United Kingdom
  • List of Countries
  • For 7 days
  • Water Temperature
  • Satellite Maps
  • Weather Map
  • Weather Widgets
  • user-avatar
    Login

    Hourly Weather Vasyl'kivtsi

    Today, 19 April, Friday

    Time Temperature Precipitation Wind Pressure Humidity
    00:00 +9°C° 0 mm 3 mps 738 mmHg 67%
    01:00 +8°C° 0 mm 3 mps 737 mmHg 70%
    02:00 +8°C° 0 mm 3 mps 737 mmHg 74%
    03:00 +6°C° 0 mm 4 mps 737 mmHg 75%
    04:00 +5°C° 0 mm 4 mps 737 mmHg 77%
    05:00 +5°C° 0 mm 5 mps 737 mmHg 79%
    06:00 +6°C° 0 mm 5 mps 737 mmHg 76%
    07:00 +6°C° 0 mm 5 mps 737 mmHg 73%
    08:00 +7°C° 0 mm 6 mps 737 mmHg 70%
    09:00 +9°C° 0.1 mm 6 mps 738 mmHg 64%
    10:00 +10°C° 0.1 mm 6 mps 738 mmHg 58%
    11:00 +13°C° 0.1 mm 6 mps 738 mmHg 52%
    12:00 +13°C° 0.2 mm 6 mps 738 mmHg 50%
    13:00 +13°C° 0.2 mm 6 mps 738 mmHg 48%
    14:00 +14°C° 0.2 mm 6 mps 739 mmHg 46%
    15:00 +13°C° 0.3 mm 6 mps 739 mmHg 49%
    16:00 +11°C° 0.3 mm 6 mps 739 mmHg 51%
    17:00 +12°C° 0.3 mm 5 mps 739 mmHg 54%
    18:00 +10°C° 0.1 mm 4 mps 739 mmHg 60%
    19:00 +8°C° 0.1 mm 4 mps 739 mmHg 66%
    20:00 +8°C° 0.1 mm 3 mps 740 mmHg 72%
    21:00 +7°C° 0 mm 2 mps 740 mmHg 75%
    22:00 +7°C° 0 mm 2 mps 740 mmHg 77%
    23:00 +6°C° 0 mm 2 mps 740 mmHg 79%

    Tomorrow, 20 April, Saturday

    Time Temperature Precipitation Wind Pressure Humidity
    00:00 +6°C° 0 mm 2 mps 740 mmHg 80%
    01:00 +5°C° 0 mm 2 mps 740 mmHg 80%
    02:00 +6°C° 0 mm 1 mps 741 mmHg 80%
    03:00 +5°C° 0 mm 1 mps 741 mmHg 79%
    04:00 +5°C° 0 mm 1 mps 740 mmHg 79%
    05:00 +4°C° 0 mm 0 mps 740 mmHg 78%
    06:00 +6°C° 0 mm 1 mps 741 mmHg 72%
    07:00 +8°C° 0 mm 1 mps 741 mmHg 67%
    08:00 +9°C° 0 mm 1 mps 741 mmHg 61%
    09:00 +10°C° 0 mm 1 mps 741 mmHg 54%
    10:00 +12°C° 0 mm 1 mps 741 mmHg 48%
    11:00 +13°C° 0 mm 1 mps 741 mmHg 41%
    12:00 +13°C° 0 mm 1 mps 740 mmHg 42%
    13:00 +13°C° 0 mm 1 mps 740 mmHg 42%
    14:00 +12°C° 0 mm 1 mps 740 mmHg 43%
    15:00 +12°C° 0 mm 2 mps 740 mmHg 44%
    16:00 +13°C° 0 mm 2 mps 739 mmHg 44%
    17:00 +13°C° 0 mm 2 mps 739 mmHg 45%
    18:00 +12°C° 0 mm 2 mps 739 mmHg 49%
    19:00 +11°C° 0 mm 1 mps 739 mmHg 53%
    20:00 +10°C° 0 mm 1 mps 738 mmHg 57%
    21:00 +9°C° 0 mm 2 mps 738 mmHg 57%
    22:00 +8°C° 0 mm 2 mps 738 mmHg 57%
    23:00 +8°C° 0 mm 2 mps 738 mmHg 58%

    Day after tomorrow, 21 April, Sunday

    Time Temperature Precipitation Wind Pressure Humidity
    00:00 +8°C° 0 mm 2 mps 737 mmHg 60%
    01:00 +8°C° 0 mm 2 mps 737 mmHg 62%
    02:00 +8°C° 0 mm 2 mps 737 mmHg 63%
    03:00 +7°C° 0.2 mm 2 mps 737 mmHg 68%
    04:00 +7°C° 0.2 mm 2 mps 736 mmHg 73%
    05:00 +6°C° 0.2 mm 2 mps 736 mmHg 77%
    06:00 +7°C° 0.2 mm 3 mps 736 mmHg 77%
    07:00 +7°C° 0.2 mm 3 mps 736 mmHg 76%
    08:00 +8°C° 0.2 mm 3 mps 736 mmHg 75%
    09:00 +8°C° 0.3 mm 3 mps 736 mmHg 73%
    10:00 +8°C° 0.3 mm 4 mps 736 mmHg 70%
    11:00 +8°C° 0.3 mm 4 mps 736 mmHg 67%
    12:00 +10°C° 0 mm 4 mps 736 mmHg 62%
    13:00 +10°C° 0 mm 5 mps 736 mmHg 56%
    14:00 +13°C° 0 mm 5 mps 735 mmHg 51%
    15:00 +13°C° 0 mm 5 mps 735 mmHg 51%
    16:00 +13°C° 0 mm 5 mps 735 mmHg 51%
    17:00 +12°C° 0 mm 4 mps 735 mmHg 51%
    18:00 +11°C° 0 mm 4 mps 735 mmHg 54%
    19:00 +10°C° 0 mm 4 mps 735 mmHg 58%
    20:00 +8°C° 0 mm 4 mps 735 mmHg 62%
    21:00 +8°C° 0 mm 4 mps 736 mmHg 62%
    22:00 +7°C° 0 mm 5 mps 736 mmHg 63%
    23:00 +7°C° 0 mm 5 mps 736 mmHg 63%

    22 April, Monday

    Time Temperature Precipitation Wind Pressure Humidity
    00:00 +6°C° 0 mm 5 mps 736 mmHg 64%
    01:00 +6°C° 0 mm 5 mps 736 mmHg 65%
    02:00 +5°C° 0 mm 5 mps 736 mmHg 67%
    03:00 +5°C° 0 mm 5 mps 736 mmHg 68%
    04:00 +3°C° 0 mm 5 mps 737 mmHg 69%
    05:00 +3°C° 0 mm 5 mps 737 mmHg 70%
    06:00 +5°C° 0 mm 5 mps 737 mmHg 66%
    07:00 +5°C° 0 mm 6 mps 738 mmHg 61%
    08:00 +8°C° 0 mm 6 mps 738 mmHg 56%
    09:00 +9°C° 0 mm 6 mps 738 mmHg 53%
    10:00 +10°C° 0 mm 7 mps 738 mmHg 50%
    11:00 +11°C° 0 mm 7 mps 739 mmHg 47%
    12:00 +11°C° 0 mm 7 mps 739 mmHg 46%
    13:00 +11°C° 0 mm 7 mps 739 mmHg 45%
    14:00 +12°C° 0 mm 7 mps 739 mmHg 43%
    15:00 +12°C° 0 mm 7 mps 738 mmHg 45%
    16:00 +11°C° 0 mm 6 mps 738 mmHg 47%
    17:00 +11°C° 0 mm 6 mps 738 mmHg 48%
    18:00 +9°C° 0 mm 5 mps 738 mmHg 53%
    19:00 +8°C° 0 mm 5 mps 739 mmHg 58%
    20:00 +7°C° 0 mm 4 mps 739 mmHg 63%
    21:00 +7°C° 0 mm 4 mps 739 mmHg 64%
    22:00 +6°C° 0 mm 4 mps 739 mmHg 65%
    23:00 +6°C° 0 mm 4 mps 740 mmHg 66%

    23 April, Tuesday

    Time Temperature Precipitation Wind Pressure Humidity
    00:00 +5°C° 0 mm 4 mps 739 mmHg 67%
    01:00 +5°C° 0 mm 4 mps 739 mmHg 68%
    02:00 +5°C° 0 mm 4 mps 739 mmHg 69%
    03:00 +4°C° 0 mm 4 mps 740 mmHg 71%
    04:00 +4°C° 0 mm 4 mps 740 mmHg 72%
    05:00 +4°C° 0 mm 4 mps 740 mmHg 73%
    06:00 +5°C° 0 mm 5 mps 740 mmHg 68%
    07:00 +7°C° 0 mm 5 mps 740 mmHg 63%
    08:00 +8°C° 0 mm 6 mps 740 mmHg 58%
    09:00 +10°C° 0 mm 7 mps 740 mmHg 54%
    10:00 +11°C° 0 mm 7 mps 740 mmHg 50%
    11:00 +12°C° 0 mm 8 mps 740 mmHg 46%
    12:00 +13°C° 0 mm 8 mps 740 mmHg 45%
    13:00 +13°C° 0 mm 8 mps 740 mmHg 45%
    14:00 +13°C° 0 mm 8 mps 739 mmHg 45%
    15:00 +13°C° 0 mm 8 mps 739 mmHg 46%
    16:00 +13°C° 0 mm 8 mps 739 mmHg 47%
    17:00 +14°C° 0 mm 7 mps 739 mmHg 48%
    18:00 +12°C° 0 mm 7 mps 739 mmHg 52%
    19:00 +10°C° 0 mm 6 mps 739 mmHg 56%
    20:00 +9°C° 0 mm 6 mps 739 mmHg 61%
    21:00 +8°C° 0 mm 6 mps 739 mmHg 62%
    22:00 +8°C° 0 mm 6 mps 739 mmHg 63%
    23:00 +7°C° 0 mm 6 mps 739 mmHg 64%

    24 April, Wednesday

    Time Temperature Precipitation Wind Pressure Humidity
    00:00 +7°C° 0 mm 6 mps 739 mmHg 64%
    01:00 +5°C° 0 mm 6 mps 739 mmHg 64%
    02:00 +5°C° 0 mm 6 mps 739 mmHg 64%
    03:00 +5°C° 0 mm 6 mps 739 mmHg 64%
    04:00 +5°C° 0 mm 6 mps 739 mmHg 63%
    05:00 +5°C° 0 mm 6 mps 739 mmHg 63%
    06:00 +6°C° 0 mm 7 mps 740 mmHg 61%
    07:00 +7°C° 0 mm 8 mps 740 mmHg 59%
    08:00 +8°C° 0 mm 9 mps 740 mmHg 58%
    09:00 +10°C° 0 mm 9 mps 740 mmHg 55%
    10:00 +10°C° 0 mm 9 mps 740 mmHg 52%
    11:00 +11°C° 0 mm 9 mps 740 mmHg 50%
    12:00 +12°C° 0 mm 8 mps 740 mmHg 48%
    13:00 +13°C° 0 mm 8 mps 740 mmHg 47%
    14:00 +15°C° 0 mm 8 mps 740 mmHg 45%
    15:00 +15°C° 0 mm 8 mps 740 mmHg 46%
    16:00 +15°C° 0 mm 7 mps 739 mmHg 47%
    17:00 +15°C° 0 mm 7 mps 739 mmHg 48%
    18:00 +13°C° 0 mm 6 mps 739 mmHg 52%
    19:00 +11°C° 0 mm 6 mps 739 mmHg 56%
    20:00 +10°C° 0 mm 5 mps 739 mmHg 60%
    21:00 +9°C° 0 mm 5 mps 740 mmHg 61%
    22:00 +9°C° 0 mm 6 mps 740 mmHg 62%
    23:00 +9°C° 0 mm 6 mps 740 mmHg 63%
    Show more